Volver al catálogo

STARLINK-31796

ActivoComunicacionesVLEO
NORAD 59646·PAYLOAD·🇺🇸 United States

Lanzado May 3, 2024 desde Cape Canaveral Space Force Station

Loading…

Próximos Pases (próximas 24 horas)

TLE

ActualizadoSource: CelesTrak SupGP

Época: Sep 15, 2026, 03:20 UTC

1 59646C 24082R   26258.13937500  .00063872  00000+0  23135-2 0  2586
2 59646  42.9997 149.8495 0001429 268.7003 188.0887 15.27546139    18

Sigue STARLINK-31796 en tiempo real con AllMySat

Download on the App Store